Weather History for KRND - April, 2013

Change the Weather History Date:

Sunday, April 21, 2013

  Actual Average Record
Temperature  
Mean Temperature 65 °F -  
Max Temperature 81 °F 77 °F 91 °F (1997)
Min Temperature 50 °F 58 °F 48 °F (2012)
Growing Degree Days 15 (Base 50)    
Moisture  
Dew Point 53 °F    
Average Humidity 72    
Maximum Humidity 94    
Minimum Humidity 39    
Precipitation  
Precipitation 0.00 in - - ()
Sea Level Pressure  
Sea Level Pressure 30.08 in    
Wind  
Wind Speed 7 mph (East)    
Max Wind Speed 14 mph    
Max Gust Speed 23 mph    
Visibility 10 miles    
Events      
Averages and records for this station are not official NWS values.
T = Trace of Precipitation, MM = Missing Value Source: NWS Daily Summary

Daily Weather History Graph

Daily Weather History Graph

Search for Another Location

Airport or City:

Trip Planner

Search our weather history database for the weather conditions in past years. The results will help you decide how hot, cold, wet, or windy it might be!

Date:

Astronomy

Apr. 21, 2013 Rise Set
Actual Time 7:00 AM CDT 8:03 PM CDT
Civil Twilight 6:35 AM CDT 8:28 PM CDT
Nautical Twilight 6:06 AM CDT 8:57 PM CDT
Astronomical Twilight 5:36 AM CDT 9:27 PM CDT
Moon 4:08 PM CDT (4/21) 4:03 AM CDT (4/21)
Length of Visible Light 13h 53m
Length of Day
13h 03m
Waxing Gibbous, 80% of the Moon is Illuminated
Apr 21
Waxing Gibbous
Apr 25
Full
May 2
Last Quarter
May 9
New
May 17
First Quarter

Hourly Weather History & Observations

Time (CDT) Temp. Heat Index Dew Point Humidity Pressure Visibility Wind Dir Wind Speed Gust Speed Precip Events Conditions
12:58 AM 54.0 °F - 49.1 °F 84% 30.07 in 10.0 mi East 5.8 mph - N/A   Clear
1:55 AM 50.0 °F - 48.2 °F 94% 30.07 in 10.0 mi East 2.3 mph - N/A   Clear
2:58 AM 50.5 °F - 48.2 °F 92% 30.06 in 10.0 mi NE 4.6 mph - N/A   Clear
3:52 AM 51.8 °F - 50.0 °F 94% 30.08 in 10.0 mi North 5.8 mph - N/A   Mostly Cloudy
3:58 AM 52.0 °F - 49.5 °F 91% 30.07 in 10.0 mi North 6.9 mph - N/A   Mostly Cloudy
4:58 AM 53.1 °F - 50.0 °F 89% 30.07 in 10.0 mi NE 4.6 mph - N/A   Overcast
5:07 AM 53.6 °F - 50.0 °F 88% 30.08 in 10.0 mi NE 4.6 mph - N/A   Overcast
5:58 AM 52.9 °F - 50.0 °F 90% 30.06 in 10.0 mi ENE 4.6 mph - N/A   Overcast
6:16 AM 53.6 °F - 50.0 °F 88% 30.08 in 10.0 mi NE 4.6 mph - N/A   Mostly Cloudy
6:52 AM 53.6 °F - 50.0 °F 88% 30.09 in 10.0 mi NE 5.8 mph - N/A   Overcast
6:58 AM 53.2 °F - 50.2 °F 89% 30.09 in 10.0 mi NE 4.6 mph - N/A   Overcast
7:43 AM 53.6 °F - 50.0 °F 88% 30.11 in 10.0 mi ENE 6.9 mph - N/A   Overcast
7:58 AM 53.8 °F - 50.2 °F 88% 30.11 in 10.0 mi ENE 4.6 mph - N/A   Mostly Cloudy
8:16 AM 55.4 °F - 50.0 °F 82% 30.12 in 10.0 mi ENE 5.8 mph - N/A   Mostly Cloudy
8:25 AM 55.4 °F - 50.0 °F 82% 30.12 in 10.0 mi ENE 4.6 mph - N/A   Mostly Cloudy
8:58 AM 58.3 °F - 51.8 °F 79% 30.12 in 10.0 mi East 8.1 mph - N/A   Clear
9:58 AM 64.2 °F - 54.5 °F 71% 30.12 in 10.0 mi SE 9.2 mph - N/A   Clear
10:16 AM 64.4 °F - 55.4 °F 73% 30.14 in 10.0 mi SSE 10.4 mph - N/A   Mostly Cloudy
10:58 AM 67.1 °F - 55.8 °F 67% 30.13 in 10.0 mi SSE 9.2 mph - N/A   Overcast
11:07 AM 68.0 °F - 55.4 °F 64% 30.14 in 10.0 mi SSE 10.4 mph - N/A   Overcast
11:16 AM 68.0 °F - 55.4 °F 64% 30.14 in 10.0 mi SE 11.5 mph - N/A   Mostly Cloudy
11:52 AM 69.8 °F - 53.6 °F 56% 30.13 in 10.0 mi SE 9.2 mph - N/A   Scattered Clouds
11:58 AM 70.5 °F - 53.2 °F 54% 30.12 in 10.0 mi SSE 8.1 mph - N/A   Scattered Clouds
12:58 PM 73.9 °F - 53.4 °F 49% 30.10 in 10.0 mi South 10.4 mph - N/A   Scattered Clouds
1:58 PM 75.4 °F - 54.3 °F 48% 30.07 in 10.0 mi Variable 4.6 mph - N/A   Mostly Cloudy
2:58 PM 76.5 °F - 54.0 °F 46% 30.05 in 10.0 mi SE 9.2 mph - N/A   Scattered Clouds
3:58 PM 79.7 °F - 54.3 °F 41% 30.01 in 10.0 mi Variable 4.6 mph - N/A   Scattered Clouds
4:58 PM 79.9 °F - 53.6 °F 40% 29.99 in 10.0 mi SE 10.4 mph - N/A   Scattered Clouds
5:58 PM 80.8 °F 80.4 °F 53.4 °F 39% 29.98 in 10.0 mi ESE 9.2 mph - N/A   Clear
6:58 PM 79.3 °F - 53.1 °F 40% 29.99 in 10.0 mi ESE 6.9 mph - N/A   Clear
7:58 PM 74.7 °F - 54.1 °F 49% 30.00 in 10.0 mi ENE 11.5 mph - N/A   Clear
8:58 PM 70.7 °F - 55.0 °F 58% 30.03 in 10.0 mi East 12.7 mph 21.9 mph N/A   Clear
9:58 PM 68.5 °F - 57.9 °F 69% 30.06 in 10.0 mi East 12.7 mph 20.7 mph N/A   Mostly Cloudy
10:25 PM 68.0 °F - 59.0 °F 73% 30.08 in 10.0 mi ESE 12.7 mph 23.0 mph N/A   Overcast
10:34 PM 68.0 °F - 59.0 °F 73% 30.09 in 10.0 mi ESE 12.7 mph 18.4 mph N/A   Overcast
10:58 PM 65.8 °F - 59.2 °F 79% 30.08 in 10.0 mi ESE 13.8 mph 23.0 mph N/A   Overcast
11:07 PM 66.2 °F - 59.0 °F 78% 30.10 in 10.0 mi ESE 9.2 mph 21.9 mph N/A   Overcast
11:58 PM 64.0 °F - 59.5 °F 85% 30.11 in 10.0 mi ESE 11.5 mph 17.3 mph N/A   Overcast